This is the latest recevied weather packets stored in our database for station/object KD7JB. If no packets are shown the sender has not sent any weather packets the latest 10 day(s).
| Time | Temp. | Humidity | Pressure | Rain* | Wind** | Luminosity | Snow |
|---|---|---|---|---|---|---|---|
| 1777307571 | 8.89° C | 41% | 1172.6 hPa | 0 mm | - | 478 W/m² | - |
| 1777307268 | 8.89° C | 40% | 1172.5 hPa | 0 mm | - | 464 W/m² | - |
| 1777306965 | 8.89° C | 40% | 1172.5 hPa | 0 mm | - | 450 W/m² | - |
| 1777306663 | 8.89° C | 41% | 1172.7 hPa | 0 mm | - | 437 W/m² | - |
| 1777306360 | 8.89° C | 42% | 1172.6 hPa | 0 mm | - | 424 W/m² | - |
| 1777306053 | 8.33° C | 43% | 1172.8 hPa | 0 mm | - | 413 W/m² | - |
| 1777305750 | 8.33° C | 41% | 1172.6 hPa | 0 mm | - | 399 W/m² | - |
| 1777305447 | 8.33° C | 42% | 1172.7 hPa | 0 mm | - | 385 W/m² | - |
| 1777305147 | 7.78° C | 42% | 1172.7 hPa | 0 mm | - | 372 W/m² | - |
| 1777304841 | 7.78° C | 42% | 1172.5 hPa | 0 mm | - | 358 W/m² | - |
| 1777304539 | 7.78° C | 43% | 1172.5 hPa | 0 mm | - | 344 W/m² | - |
| 1777304236 | 7.78° C | 43% | 1172.4 hPa | 0 mm | - | 330 W/m² | - |
| 1777303933 | 7.78° C | 43% | 1172.5 hPa | 0 mm | - | 316 W/m² | - |
| 1777303630 | 7.78° C | 44% | 1172.2 hPa | 0 mm | - | 301 W/m² | - |
| 1777303328 | 7.78° C | 45% | 1172.4 hPa | 0 mm | - | 287 W/m² | - |
| 1777303024 | 7.78° C | 43% | 1172.1 hPa | 0 mm | - | 272 W/m² | - |
| 1777302722 | 7.78° C | 43% | 1172 hPa | 0 mm | - | 257 W/m² | - |
| 1777302420 | 7.78° C | 43% | 1172.2 hPa | 0 mm | - | 242 W/m² | - |
| 1777302117 | 7.22° C | 43% | 1172.2 hPa | 0 mm | - | 226 W/m² | - |
| 1777301815 | 7.22° C | 44% | 1172.2 hPa | 0 mm | - | 214 W/m² | - |
| 1777301513 | 7.22° C | 45% | 1172.2 hPa | 0 mm | - | 198 W/m² | - |
| 1777301209 | 7.22° C | 44% | 1172.1 hPa | 0 mm | - | 181 W/m² | - |
| 1777300905 | 6.67° C | 45% | 1172 hPa | 0 mm | - | 167 W/m² | - |
| 1777300604 | 6.67° C | 47% | 1171.9 hPa | 0 mm | - | 153 W/m² | - |
| 1777300301 | 6.67° C | 47% | 1172 hPa | 0 mm | - | 140 W/m² | - |
* Rain latest hour (hover to see other rain measurements)
** Current wind speed in m/s (hover to see current wind gust speed)